sat.trackr.live / text

‹ back to catalog

STARLINK-34838

NORAD 65343 · 2025-189W

PAYLOAD ACTIVE UNKNOWN

§ Identity

Operator
Country
US
Launch date
2025-08-27
Launch site
AFETR
Launch vehicle
Mass (kg)
RCS (m²)

Purposes: comms

External: N2YO · Heavens-Above · Gunter

§ Orbital elements

Epoch: 2026-09-20T14:51:40.234752Z

Period
93.85 min
Inclination
53.1586°
Eccentricity
0.0001237
Mean motion
15.34408356 rev/d
Perigee alt
461.8 km
Apogee alt
463.5 km
Semi-major
6,840.8 km
B*
4.3897e-4
RAAN
19.0193°
Arg perigee
83.8340°
Mean anomaly
276.2804°
Rev number
6,099

§ Raw data

STARLINK-348381 65343U 25189W   26263.61921568  .00014488  00000+0  43897-3 0  99912 65343  53.1586  19.0193 0001237  83.8340 276.2804 15.34408356 60995

JSON: /api/v1/satellites/65343 · /tle

For live sub-satellite position, see the globe view (requires WebGL).

§ Visibility from observer

Set your observer location to see the next 7 days of passes ≥ 10°. The values pass through the URL so the page stays shareable.

No JS? Fill the form by hand. The geolocation button needs JavaScript.